{"data":{"norad_id":69224,"epoch":"2026-09-19T19:09:31.366944Z","epoch_age_seconds":87639,"freshness":"FRESH","line1":"1 69224U 26115P   26262.79827971  .00013582  00000+0  42202-3 0  9997","line2":"2 69224  97.2854 278.9138 0000965  86.3591 273.7762 15.33464638 19197","mean_motion":15.33464638,"eccentricity":9.65e-5,"inclination_deg":97.2854,"raan_deg":278.9138,"arg_perigee_deg":86.3591,"mean_anomaly_deg":273.7762,"bstar":0.00042202,"rev_number":1919,"period_min":93.905002066308,"perigee_km":464.82433673168,"apogee_km":466.1451557287,"semimajor_km":6843.6217462302,"source":"CELESTRAK","updated_at":"2026-09-20T09:00:44.104461Z"}}